Location: Goc?aw
(53.4743°N, 14.6027°E)
Time: 09:24:17
(UTC+00:00)

Daily predictions for brighter satellites

Satellite Brightness Start Highest point End
(mag) Time Altitude Azimuth Time Altitude Azimuth Time Altitude Azimuth
Cosmos 44 Rocket 3.5 15:19:43 10° NW 15:24:49 58° NE 15:29:58 10° ESE
USA 81 4.4 15:21:07 10° N 15:26:12 45° ENE 15:31:16 10° SSE
Cosmos 1805 Rocket 4.2 15:22:56 10° NNW 15:27:21 62° W 15:31:42 10° S
SL-8 Rocket 4.1 15:23:07 10° N 15:29:21 63° ENE 15:35:36 10° SSE
Cosmos 1980 4.3 15:23:47 10° SW 15:29:23 58° NW 15:35:01 10° NNE
ALOS 4.4 15:25:50 10° SSW 15:29:57 30° W 15:34:06 10° NNW
Cosmos 1328 Rocket 4.3 15:26:28 10° SSE 15:30:19 32° E 15:34:14 10° NNE
Cosmos 389 Rocket 2.3 15:27:11 10° S 15:30:36 82° E 15:34:02 10° NNE
Spot 2 4.4 15:28:15 10° SSE 15:33:09 76° ENE 15:38:17 10° NNW
Cosmos 1933 Rocket 4.3 15:30:08 10° N 15:34:11 32° ENE 15:38:12 10° SE
Cosmos 2221 4.0 15:30:21 10° SW 15:34:21 36° WNW 15:38:21 10° N
H-2A R/B 3.7 15:32:45 10° ENE 15:34:34 12° NE 15:36:22 10° NNE
Cosmos 1666 Rocket 3.6 15:30:57 10° N 15:35:26 84° E 15:39:54 10° SSE
H-2A R/B 2.8 15:34:09 10° SSE 15:38:03 86° ENE 15:42:00 10° NNW
PSLV R/B 3.8 15:38:11 10° SSE 15:42:15 82° ENE 15:46:16 10° NNW
CZ-2C R/B 4.3 15:40:37 10° E 15:43:34 17° NE 15:46:31 10° NNE
Cosmos 1656 Rocket 3.7 15:38:37 10° NNW 15:44:14 59° NE 15:49:43 10° SE
Cosmos 2056 Rocket 4.4 15:40:04 10° NNW 15:44:40 29° NE 15:49:17 10° ESE
Meteor 1-4 Rocket 3.3 15:42:14 10° SSE 15:45:24 31° E 15:48:33 10° NNE
Cosmos 2341 Rocket 4.2 15:39:05 10° NNW 15:45:26 84° W 15:51:48 10° S
H-2A R/B 2.8 15:44:10 10° NNE 15:48:03 33° E 15:51:59 10° SSE
Cosmos 1666 4.2 15:47:41 10° NNE 15:50:19 17° ENE 15:52:58 10° ESE
Cosmos 2322 Rocket 4.2 15:51:29 10° NW 15:54:30 14° NNW 15:57:31 10° NNE
Cosmos 1606 3.2 15:51:31 10° SSW 15:55:22 63° WNW 15:59:14 10° N
Landsat 5 3.9 15:50:59 10° NNE 15:55:23 52° E 15:59:48 10° S
Envisat 3.1 15:50:23 10° SSE 15:55:28 86° WSW 16:00:37 10° NNW
USA 281 3.9 15:50:13 10° E 15:55:49 31° NE 16:01:26 10° NNW
Cosmos 1500 3.8 15:52:20 10° N 15:55:51 33° ENE 15:59:21 10° SE
Cosmos 1633 Rocket 3.3 15:51:34 10° NNW 15:55:57 76° W 16:00:17 10° S
Cosmos 773 Rocket 4.0 15:50:58 10° SSW 15:56:13 71° ESE 16:01:32 10° NNE
NOAA 6 4.1 15:51:19 10° SSE 15:56:28 86° WSW 16:01:38 10° NNW
Cosmos 1939 Rocket 3.8 15:55:05 10° ESE 15:58:21 25° ENE 16:01:41 10° N
Meteor 1-14 Rocket 4.4 15:52:47 10° N 15:58:46 66° ENE 16:04:43 10° SSE
Cosmos 1697 Rocket 4.3 15:58:22 10° NNW 16:01:54 16° NNE 16:04:21 13° NE
Cosmos 1782 3.1 16:00:06 10° SSE 16:03:55 47° E 16:07:47 10° NNE
SL-16 R/B 2.3 15:58:49 10° SW 16:04:29 78° WNW 16:10:11 10° NNE
SL-16 R/B 4.5 16:01:41 10° N 16:06:18 22° NW 16:10:54 10° W
Radarsat 4.5 16:03:24 10° SSE 16:08:34 71° ENE 16:13:46 10° NNW
CZ-4 R/B 2.7 16:06:46 13° E 16:09:02 19° ENE 16:11:59 10° NNE
Cosmos 371 Rocket 3.7 16:04:21 10° NNW 16:09:02 41° NE 16:13:38 10° SE
Cosmos 1869 Rocket 4.3 16:05:42 10° N 16:09:45 32° ENE 16:13:46 10° SE
Cosmos 2181 Rocket 4.0 16:04:04 10° S 16:10:27 80° E 16:16:46 10° NNE
Helios 1A Rocket 4.2 16:11:13 18° E 16:12:23 20° ENE 16:15:19 10° NNE
Okean O Rocket 1.5 16:12:32 10° SSE 16:16:55 82° ENE 16:21:22 10° NNW
Cosmos 1867 4.2 16:12:49 10° WSW 16:18:07 50° NW 16:22:38 14° NE
SMAP 3.1 16:13:28 10° SSE 16:18:08 88° WSW 16:22:50 10° NNW
NOAA 12 4.1 16:14:50 10° SSE 16:20:10 87° WSW 16:25:31 10° NNW
CZ-4C R/B 3.1 16:16:39 10° NNE 16:20:18 87° WNW 16:23:54 10° SSW
CORIOLIS 4.1 16:15:37 10° SSE 16:21:04 86° ENE 16:26:34 10° NNW
Cosmos 1933 4.0 16:19:24 10° SSW 16:23:24 58° WNW 16:27:28 10° N
Okean-O 3.4 16:22:10 10° ESE 16:25:56 28° ENE 16:29:45 10° N
FengYun 1-2 T 4.1 16:20:27 10° SSE 16:25:57 79° ENE 16:31:28 10° NNW
Lacrosse 5 rocket 1.2 16:22:21 10° W 16:25:57 60° NNW 16:27:42 27° NE
Cosmos 2219 Rocket 4.1 16:23:28 10° WNW 16:27:23 19° NNW 16:31:17 10° NNE
Cosmos 1151 Rocket 3.3 16:23:11 10° SSW 16:27:25 68° WNW 16:31:42 10° N
Cosmos 2360 Rocket 4.3 16:24:33 10° NW 16:27:29 14° NNW 16:30:26 10° NNE
USA 267 3.3 16:23:58 17° E 16:29:05 68° N 16:35:36 10° WNW
ADEOS Rocket 3.8 16:22:28 10° NNE 16:30:15 74° WNW 16:37:52 10° SSW
Lacrosse 4 Rocket 2.7 16:28:22 10° SSE 16:31:24 20° ESE 16:31:32 20° ESE
SL-08 R/B 4.4 16:25:22 10° N 16:31:33 87° E 16:37:40 10° S
Cosmos 489 Rocket 4.4 16:25:29 10° SSW 16:31:41 83° ESE 16:37:53 11° NNE
Cosmos 2366 rocket 4.5 16:27:04 10° NNW 16:33:09 63° W 16:39:12 10° S
ISS -2.3 16:31:11 10° W 16:34:18 35° SSW 16:37:02 12° SE
CSL-04 Rocket 4.4 16:35:42 23° E 16:37:26 28° ENE 16:41:51 10° N
BREEZE-M DEB (TANK) 3.3 16:38:21 10° SW 16:40:05 21° SSE 16:40:11 21° SSE
Cosmos 1943 Rocket 4.5 16:37:31 10° NW 16:42:03 26° WSW 16:46:37 10° SSW
Cosmos 2333 Rocket 4.2 16:38:30 10° WNW 16:42:07 17° NNW 16:45:43 10° NNE
Cosmos 1812 2.9 16:38:47 10° SSE 16:42:28 47° E 16:43:53 31° NE
YAOGAN 1 3.2 16:41:41 28° E 16:42:55 33° ENE 16:46:49 10° N
Cosmos 1980 Rocket 3.8 16:39:44 10° NNW 16:43:18 17° NNE 16:44:07 16° NNE
Cosmos 923 Rocket 4.2 16:38:33 10° S 16:43:35 51° ESE 16:46:31 24° NE
ERS-2 2.5 16:45:51 38° E 16:46:08 39° E 16:49:36 10° S
Cosmos 332 Rocket 3.8 16:41:31 10° NNW 16:46:16 55° ENE 16:50:58 10° SE
H-2A R/B 4.4 16:42:53 10° SSW 16:46:35 31° W 16:50:11 10° NNW
Feng Yun 1-1 Rocket 4.2 16:41:03 10° SSE 16:46:42 79° ENE 16:52:14 10° NNW
CENTAUR R/B 3.2 16:42:22 10° S 16:47:47 36° ESE 16:50:21 27° ENE
X-37B 3.0 16:46:41 10° SW 16:48:53 17° S 16:50:19 14° SSE
Cosmos 1461 3.9 16:45:40 10° S 16:49:52 34° ESE 16:50:44 32° E
Cosmos 2239 Rocket 4.4 16:44:16 10° N 16:50:28 74° ENE 16:56:41 10° SSE
NOAA 11 4.4 16:46:43 10° S 16:52:08 72° WSW 16:57:38 10° NNW
Cosmos 1515 Rocket 3.8 16:48:25 10° SSW 16:52:49 73° WNW 16:57:18 10° N
Cosmos 2237 Rocket 3.9 16:48:44 10° W 16:53:18 24° NNW 16:57:41 11° NNE
ARGOS 3.8 16:53:15 31° ENE 16:53:44 32° ENE 16:58:26 10° N
Cosmos 1535 Rocket 4.5 16:49:07 10° N 16:55:08 55° ENE 17:01:09 10° SSE
Cosmos 2369 Rocket 4.1 16:51:17 10° NW 16:56:16 32° WSW 17:01:12 10° SSW
Cosmos 1238 Rocket 3.1 16:52:26 10° N 16:56:38 86° ENE 17:01:45 10° S
CZ-4B R/B 4.3 16:53:00 10° S 16:58:04 45° W 17:03:09 10° NNW
Meteor 2-6 Rocket 4.0 16:52:48 10° S 16:58:16 73° E 17:03:28 11° NNE
Cosmos 1943 3.1 16:53:54 10° SSW 16:59:34 78° ESE 17:02:57 26° NE
COSMO-SKYMED 1 2.7 16:58:58 41° ENE 16:59:55 48° E 17:04:07 10° S
Cosmos 1603 3.6 16:54:55 10° SSW 17:00:32 86° ESE 17:03:59 25° NNE
SL-16 R/B 4.1 16:57:42 10° NNW 17:00:36 14° N 17:01:39 13° NNE
Cosmos 1934 Rocket 3.9 17:01:59 10° N 17:08:23 72° ENE 17:14:39 10° SSE
Cosmos 1680 Rocket 3.5 17:03:41 10° S 17:08:54 63° ESE 17:10:55 37° NE
NOSS 3-2 (C) 3.7 17:04:38 10° SSW 17:10:03 45° ESE 17:11:34 38° E
CZ-4B R/B 1.2 17:10:42 77° SW 17:10:42 77° SW 17:13:43 10° SSW
Cosmos 1536 2.9 17:07:04 10° N 17:10:27 53° NNE 17:10:27 53° NNE
MOS 1 Rocket 4.0 17:12:57 41° E 17:12:57 41° E 17:17:51 10° SSE
H-2A R/B 2.1 17:10:52 31° SE 17:12:58 51° ENE 17:17:51 10° N
Cosmos 304 Rocket 3.6 17:09:04 10° NNW 17:13:54 71° ENE 17:16:03 33° SE
CZ-2D R/B 3.2 17:10:46 10° SSE 17:14:37 85° WSW 17:18:31 10° NNW
Meteor 1-11 Rocket 3.8 17:12:43 10° NNW 17:18:34 83° WSW 17:24:29 10° S
NOAA 15 4.4 17:13:37 10° SSE 17:18:52 72° ENE 17:24:08 10° NNW
Cosmos 1371 Rocket 4.3 17:16:15 10° NNW 17:21:25 65° WSW 17:26:34 10° SSE
CZ-2C R/B 2.7 17:17:58 10° SSE 17:22:50 84° ENE 17:27:36 10° NNW
SKYMED 3 4.4 17:23:15 60° NNE 17:23:59 80° ESE 17:28:20 10° SSW
H-2A R/B 3.5 17:20:11 10° N 17:24:03 35° WNW 17:27:58 10° SW
Cosmos 2084 Rocket 4.3 17:20:32 10° NW 17:23:58 37° N 17:23:58 37° N
Cosmos 1666 3.3 17:22:28 10° NNW 17:26:16 57° W 17:30:03 10° S
Cosmos 2228 Rocket 3.4 17:21:50 10° SSW 17:26:19 68° WNW 17:28:59 24° N
Cosmos 2056 Rocket 3.9 17:21:59 10° NNW 17:27:15 67° WSW 17:32:35 10° SSE
Cosmos 2112 Rocket 3.9 17:25:30 10° SSW 17:30:48 78° ESE 17:32:04 53° NE
Nadezhda 3 Rocket 4.1 17:24:53 10° SSW 17:31:16 76° WNW 17:37:38 10° N
NOSS 3-2 (A) 3.3 17:26:42 10° SW 17:32:32 83° SE 17:34:34 47° NE
Cosmos 1939 Rocket 4.1 17:29:25 10° SSW 17:33:07 40° W 17:36:56 10° NNW
USA 215 4.2 17:36:51 28° SE 17:36:51 28° SE 17:41:41 10° S
USA 281 3.1 17:33:09 10° SSE 17:39:44 89° WSW 17:46:22 10° NNW
Cosmos 1452 Rocket 3.4 17:34:36 10° NNW 17:39:40 66° NE 17:39:40 66° NE
Cosmos 2322 Rocket 4.1 17:37:50 10° NNW 17:40:34 15° N 17:40:34 15° N
Cosmos 1437 Rocket 4.0 17:39:30 10° SSW 17:41:51 35° SSW 17:41:51 35° SSW
CZ-4 R/B 1.8 17:42:46 49° SSW 17:43:38 63° WSW 17:47:46 10° NNW
BREEZE-M DEB (TANK) 4.4 17:40:43 10° SW 17:45:38 30° S 17:45:38 30° S
SJ-11-01 4.4 17:46:48 67° N 17:46:48 67° N 17:50:57 10° NNW
Helios 1A Rocket 3.4 17:47:27 58° W 17:47:27 58° W 17:51:12 10° NNW
Cosmos 1697 Rocket 3.6 17:42:12 10° NNW 17:46:07 34° NNE 17:46:07 34° NNE
SKYMED 2 3.9 17:47:35 58° NW 17:48:04 63° WNW 17:52:21 10° SSW
SL-16 R/B 4.0 17:44:57 10° W 17:49:31 24° NNW 17:52:19 17° N
Cosmos 158 Rocket 4.4 17:45:21 10° SW 17:50:10 55° WNW 17:51:24 43° N
USA 238 DEB 3.6 17:47:52 10° SW 17:54:32 88° NW 17:56:08 57° NE
USA 238 3.6 17:47:57 10° SW 17:54:37 88° NW 17:56:13 57° NE
Cosmos 1420 Rocket 4.3 17:49:53 10° NNW 17:55:03 65° WSW 17:56:58 38° S
Meteor 1-27 Rocket 3.7 17:53:01 10° SSW 17:58:35 79° WNW 18:00:15 47° N
Cosmos 1656 4.0 17:55:47 10° NNW 18:00:25 56° N 18:00:25 56° N
Okean-O 3.6 17:58:01 10° S 18:02:16 45° W 18:06:33 10° NNW
Lacrosse 5 rocket 3.3 18:01:54 10° WNW 18:03:20 21° WNW 18:03:20 21° WNW
CSL-04 Debris 4.3 18:05:57 42° S 18:07:47 71° WSW 18:13:17 10° NNW
Lacrosse 4 Rocket 3.0 18:05:37 10° SW 18:07:53 31° WSW 18:07:53 31° WSW
ISS -0.5 18:09:45 10° SW 18:10:01 10° SW 18:10:01 10° SW
USA 267 3.1 18:11:20 71° SE 18:12:04 83° SSW 18:18:40 10° WNW
Cosmos 1153 Rocket 4.4 18:07:02 10° N 18:12:43 75° N 18:12:43 75° N
Cosmos 2219 Rocket 4.4 18:11:09 10° NNW 18:13:32 13° N 18:13:32 13° N
Cosmos 2360 Rocket 4.3 18:10:48 10° NNW 18:12:39 14° N 18:12:39 14° N
ATLAS 3B R/B 4.1 18:10:07 10° S 18:12:26 22° S 18:12:26 22° S
CSL-04 Rocket 3.9 18:17:20 63° WSW 18:17:27 63° WSW 18:22:43 10° NNW
Cosmos 1605 Rocket 4.3 18:12:49 10° NNW 18:18:50 60° W 18:24:49 10° S
YAOGAN 1 4.0 18:18:52 36° W 18:19:00 36° W 18:23:01 10° NNW
Cosmos 2333 Rocket 4.4 18:25:58 10° NNW 18:27:52 13° N 18:27:52 13° N
Cosmos 1980 Rocket 3.8 18:23:32 10° NNW 18:25:52 23° N 18:25:52 23° N
ARGOS 3.9 18:34:46 48° WNW 18:34:46 48° WNW 18:39:06 10° NNW
CENTAUR R/B 2.8 18:31:41 10° WSW 18:37:34 71° WNW 18:37:34 71° WNW
Cosmos 2237 Rocket 4.5 18:36:46 10° NW 18:39:30 14° N 18:39:30 14° N
SL-16 R/B 4.4 18:42:06 10° NNW 18:43:31 16° N 18:43:31 16° N
H-2A R/B 3.7 18:51:28 27° WSW 18:52:38 29° W 18:57:03 10° NNW
NOSS 3-2 (C) 4.4 18:54:54 10° WSW 18:59:03 45° W 18:59:03 45° W
